Zurück zum Katalog

STARLINK-35518

AktivKommunikationVLEO
NORAD 66198·PAYLOAD·🇺🇸 United States

Gestartet Oct 26, 2025 von Cape Canaveral Space Force Station

Loading…

Nächste Überflüge (nächste 24 Stunden)

TLE

AktuellSource: CelesTrak SupGP

Epoche: Sep 14, 2026, 23:02 UTC

1 66198C 25243X   26257.96020833  .00027041  00000+0  79903-3 0  2570
2 66198  53.1584  85.2873 0001078  91.2824 267.0319 15.34373189    16

Verfolge STARLINK-35518 in Echtzeit mit AllMySat

Download on the App Store